Home   Weather   Abidjan   Past weeks

Flag for Cote d'Ivoire (Ivory Coast) Past Weather in Abidjan, Cote d'Ivoire (Ivory Coast) — Yesterday and Last 2 Weeks

77 °F

Thunderstorms. Partly sunny.

Feels Like: 78 °F
Forecast: 77 / 86 °F
Wind: 2 mph from North

Location: Abidjan Airport

Current Time: Oct 22, 2016 at 11:53:06 AM

Latest Report: Oct 22, 2016 at 11:00 AM

Visibility: N/A

Pressure: 29.95 "Hg

Humidity: 89%

Dew Point: 73 °F

Location of AbidjanLocation

Past Weather in Abidjan — Graph


Abidjan Temperature Yesterday

Maximum temperature yesterday: 86 °F (at 10:30 AM)
Minimum temperature yesterday: 79 °F (at 2:00 AM)
Average temperature yesterday: 82 °F

High & Low Weather Summary for the Past Weeks

High86 °F (Oct 7, 11:30 AM)100% (Oct 8, 6:00 AM)29.98 "Hg (Oct 8, 6:00 AM)
Low73 °F (Oct 22, 8:30 AM)70% (Oct 7, 12:00 PM)29.77 "Hg (Oct 7, 5:00 PM)
Average81 °F86%29.88 "Hg
* Reported Oct 7 10:00 AM — Oct 22 10:30 AM, Abidjan, Weather by CustomWeather, © 2016

Note: Actual official high and low records may vary slightly from our data, if they occured in-between our weather recording intervals... More about our weather records


Abidjan Weather History for the Previous 24 Hours

Scroll right to see more
Time TempWeatherWind HumidityBarometerVisibility
10:30 AM
Sat, Oct 22
75 °FThunderstorms. Partly sunny.2 mph89%29.98 "HgN/A
10:00 AM75 °FThunderstorms. Partly sunny.3 mph89%29.98 "HgN/A
9:30 AM73 °FThunderstorms. Partly sunny.6 mph94%29.98 "HgN/A
9:00 AM73 °FThunderstorms. Partly sunny.5 mph94%29.98 "HgN/A
8:30 AM73 °FThunderstorms. Partly sunny.7 mph94%29.98 "Hg4 mi
8:00 AM77 °FThunderstorms. Partly sunny.17 mph83%29.98 "Hg2 mi
7:00 AM79 °FScattered clouds.3 mph94%29.92 "HgN/A
6:30 AM77 °FScattered clouds.2 mph94%29.92 "HgN/A
6:00 AM77 °FThunderstorms. Partly sunny.2 mph94%29.92 "HgN/A
5:30 AM77 °FThunderstorms. Passing clouds.2 mph94%29.89 "HgN/A
5:00 AM77 °FThunderstorms. Passing clouds.2 mph94%29.89 "HgN/A
4:30 AM77 °FThunderstorms. Passing clouds.3 mph94%29.89 "HgN/A
4:00 AM79 °FThunderstorms. Partly cloudy.9 mph89%29.89 "HgN/A
3:30 AM79 °FThunderstorms. Partly cloudy.7 mph89%29.89 "HgN/A
3:00 AM81 °FThunderstorms. Passing clouds.3 mph89%29.86 "HgN/A
2:30 AM81 °FPassing clouds.5 mph84%29.86 "HgN/A
2:00 AM81 °FPassing clouds.3 mph89%29.89 "HgN/A
1:30 AM81 °FPassing clouds.5 mph89%29.89 "HgN/A
1:00 AM81 °FPassing clouds.6 mph89%29.89 "HgN/A
12:00 AM81 °FPassing clouds.6 mph84%29.92 "HgN/A
11:30 PM
Fri, Oct 21
81 °FPassing clouds.6 mph84%29.92 "HgN/A
11:00 PM81 °FPassing clouds.6 mph84%29.92 "HgN/A
10:30 PM81 °FPassing clouds.6 mph89%29.92 "HgN/A
10:00 PM81 °FPassing clouds.7 mph84%29.92 "HgN/A
9:30 PM81 °FPassing clouds.7 mph89%29.92 "HgN/A
9:00 PM82 °FThunderstorms. Partly cloudy.7 mph84%29.89 "HgN/A
8:30 PM81 °FThunderstorms. Passing clouds.8 mph89%29.89 "HgN/A
8:00 PM82 °FThunderstorms. Passing clouds.8 mph84%29.86 "HgN/A
7:30 PM82 °FPassing clouds.8 mph79%29.86 "HgN/A
7:00 PM82 °FPassing clouds.9 mph79%29.86 "HgN/A
6:30 PM82 °FPassing clouds.10 mph79%29.86 "HgN/A
6:00 PM82 °FPassing clouds.9 mph79%29.83 "HgN/A
5:30 PM82 °FScattered clouds.12 mph79%29.83 "HgN/A
5:00 PM84 °FScattered clouds.13 mph74%29.83 "HgN/A
4:30 PM84 °FScattered clouds.13 mph74%29.83 "HgN/A
4:00 PM86 °FScattered clouds.13 mph70%29.83 "HgN/A
3:30 PM86 °FScattered clouds.12 mph70%29.83 "HgN/A
3:00 PM86 °FScattered clouds.14 mph70%29.83 "HgN/A
2:30 PM86 °FScattered clouds.14 mph75%29.83 "HgN/A
2:00 PM86 °FScattered clouds.14 mph75%29.86 "HgN/A
1:30 PM86 °FScattered clouds.14 mph70%29.86 "HgN/A
1:00 PM86 °FScattered clouds.13 mph75%29.86 "HgN/A
12:30 PM86 °FScattered clouds.12 mph75%29.89 "HgN/A
12:00 PM86 °FScattered clouds.12 mph75%29.89 "HgN/A
11:30 AM86 °FScattered clouds.12 mph75%29.89 "HgN/A
11:00 AM86 °FScattered clouds.10 mph75%29.92 "HgN/A
Weather by CustomWeather, © 2016

See weather overviewHow to use our weather pages